• In Belarus
  • List of Countries
  • For 7 days
  • Water Temperature
  • Satellite Maps
  • Weather Map
  • Weather Widgets
  • user-avatar
    Login

    Hourly Weather Prutz

    Today, 23 January, Tuesday

    Time Temperature Precipitation Wind Pressure Humidity
    00:00 +1°C° 0.6 mm 2 mps 631 mmHg 97%
    01:00 +1°C° 0 mm 2 mps 632 mmHg 97%
    02:00 -1°C° 0.4 mm 2 mps 632 mmHg 97%
    03:00 -1°C° 0.4 mm 2 mps 632 mmHg 96%
    04:00 -1°C° 0.4 mm 2 mps 633 mmHg 96%
    05:00 -2°C° 0.4 mm 2 mps 633 mmHg 96%
    06:00 -2°C° 0.4 mm 2 mps 634 mmHg 95%
    07:00 -2°C° 0 mm 3 mps 634 mmHg 95%
    08:00 -2°C° 0.1 mm 2 mps 634 mmHg 95%
    09:00 -2°C° 0.1 mm 2 mps 635 mmHg 95%
    10:00 -1°C° 0.1 mm 2 mps 636 mmHg 94%
    11:00 -1°C° 0 mm 2 mps 636 mmHg 94%
    12:00 -1°C° 0 mm 2 mps 636 mmHg 93%
    13:00 +1°C° 0 mm 2 mps 636 mmHg 92%
    14:00 +2°C° 0 mm 1 mps 636 mmHg 92%
    15:00 +1°C° 0 mm 1 mps 636 mmHg 91%
    16:00 +1°C° 0 mm 1 mps 636 mmHg 91%
    17:00 0°C° 0 mm 1 mps 636 mmHg 84%
    18:00 -4°C° 0 mm 2 mps 636 mmHg 78%
    19:00 -5°C° 0 mm 2 mps 636 mmHg 71%
    20:00 -5°C° 0 mm 2 mps 636 mmHg 66%
    21:00 -5°C° 0 mm 2 mps 637 mmHg 61%
    22:00 -3°C° 0 mm 1 mps 637 mmHg 56%
    23:00 -3°C° 0 mm 1 mps 637 mmHg 55%

    Tomorrow, 24 January, Wednesday

    Time Temperature Precipitation Wind Pressure Humidity
    00:00 -5°C° 0 mm 2 mps 637 mmHg 55%
    01:00 -5°C° 0 mm 2 mps 637 mmHg 54%
    02:00 -5°C° 0 mm 2 mps 637 mmHg 54%
    03:00 -5°C° 0 mm 2 mps 637 mmHg 53%
    04:00 -5°C° 0 mm 2 mps 637 mmHg 53%
    05:00 -5°C° 0 mm 2 mps 637 mmHg 52%
    06:00 -5°C° 0 mm 2 mps 637 mmHg 52%
    07:00 -5°C° 0 mm 2 mps 637 mmHg 51%
    08:00 -3°C° 0 mm 2 mps 637 mmHg 55%
    09:00 -2°C° 0 mm 2 mps 638 mmHg 59%
    10:00 +1°C° 0 mm 2 mps 638 mmHg 63%
    11:00 +2°C° 0 mm 2 mps 638 mmHg 70%
    12:00 +3°C° 0 mm 2 mps 638 mmHg 77%
    13:00 +4°C° 0 mm 2 mps 638 mmHg 84%
    14:00 +3°C° 0 mm 2 mps 638 mmHg 83%
    15:00 +3°C° 0 mm 2 mps 637 mmHg 82%
    16:00 +2°C° 0 mm 2 mps 637 mmHg 81%
    17:00 +1°C° 0 mm 2 mps 637 mmHg 79%
    18:00 -2°C° 0 mm 3 mps 636 mmHg 76%
    19:00 -4°C° 0 mm 3 mps 636 mmHg 73%
    20:00 -4°C° 0 mm 3 mps 636 mmHg 71%
    21:00 -4°C° 0 mm 3 mps 636 mmHg 70%
    22:00 -5°C° 0 mm 3 mps 636 mmHg 68%
    23:00 -5°C° 0 mm 3 mps 635 mmHg 68%

    Day after tomorrow, 25 January, Thursday

    Time Temperature Precipitation Wind Pressure Humidity
    00:00 -5°C° 0 mm 3 mps 635 mmHg 67%
    01:00 -5°C° 0 mm 3 mps 635 mmHg 66%
    02:00 -5°C° 0 mm 3 mps 635 mmHg 66%
    03:00 -5°C° 0 mm 3 mps 635 mmHg 67%
    04:00 -5°C° 0 mm 3 mps 634 mmHg 67%
    05:00 -5°C° 0 mm 3 mps 634 mmHg 68%
    06:00 -4°C° 0 mm 3 mps 634 mmHg 70%
    07:00 -4°C° 0 mm 3 mps 634 mmHg 71%
    08:00 -2°C° 0 mm 3 mps 634 mmHg 74%
    09:00 -1°C° 0 mm 3 mps 634 mmHg 77%
    10:00 0°C° 0 mm 3 mps 634 mmHg 79%
    11:00 0°C° 0 mm 3 mps 634 mmHg 83%
    12:00 +1°C° 0 mm 3 mps 633 mmHg 86%
    13:00 +2°C° 0 mm 3 mps 633 mmHg 90%
    14:00 +1°C° 0 mm 3 mps 632 mmHg 90%
    15:00 +1°C° 0 mm 3 mps 632 mmHg 90%
    16:00 0°C° 0 mm 3 mps 632 mmHg 90%
    17:00 0°C° 0 mm 3 mps 631 mmHg 89%
    18:00 -1°C° 0 mm 3 mps 631 mmHg 88%
    19:00 -2°C° 0 mm 3 mps 631 mmHg 87%
    20:00 -2°C° 0 mm 3 mps 631 mmHg 87%
    21:00 -2°C° 0 mm 3 mps 631 mmHg 87%
    22:00 -2°C° 0 mm 3 mps 631 mmHg 87%
    23:00 -2°C° 0.1 mm 3 mps 630 mmHg 87%

    26 January, Friday

    Time Temperature Precipitation Wind Pressure Humidity
    00:00 -2°C° 0.1 mm 3 mps 630 mmHg 87%
    01:00 -2°C° 0.1 mm 3 mps 630 mmHg 87%
    02:00 -2°C° 0.1 mm 3 mps 629 mmHg 87%
    03:00 -2°C° 0.1 mm 3 mps 629 mmHg 87%
    04:00 -4°C° 0.1 mm 3 mps 629 mmHg 87%
    05:00 -4°C° 0.1 mm 3 mps 629 mmHg 88%
    06:00 -4°C° 0.1 mm 3 mps 629 mmHg 88%
    07:00 -4°C° 0.1 mm 3 mps 629 mmHg 88%
    08:00 -2°C° 0.1 mm 2 mps 630 mmHg 89%
    09:00 -1°C° 0.1 mm 2 mps 630 mmHg 90%
    10:00 -1°C° 0.1 mm 2 mps 630 mmHg 91%
    11:00 +1°C° 0.2 mm 2 mps 631 mmHg 93%
    12:00 +1°C° 0.2 mm 2 mps 631 mmHg 95%
    13:00 +1°C° 0.2 mm 2 mps 631 mmHg 97%
    14:00 +1°C° 0.8 mm 2 mps 631 mmHg 97%
    15:00 -1°C° 0.8 mm 2 mps 631 mmHg 96%
    16:00 -1°C° 0.8 mm 2 mps 631 mmHg 96%
    17:00 0°C° 1.3 mm 1 mps 632 mmHg 96%
    18:00 0°C° 1.3 mm 1 mps 632 mmHg 97%
    19:00 -1°C° 1.3 mm 1 mps 632 mmHg 97%
    20:00 -1°C° 1.4 mm 1 mps 632 mmHg 97%
    21:00 -1°C° 1.4 mm 1 mps 632 mmHg 97%
    22:00 -2°C° 1.4 mm 1 mps 633 mmHg 97%
    23:00 -2°C° 1.1 mm 1 mps 633 mmHg 97%

    27 January, Saturday

    Time Temperature Precipitation Wind Pressure Humidity
    00:00 -2°C° 1.1 mm 1 mps 633 mmHg 97%
    01:00 -2°C° 1.1 mm 1 mps 633 mmHg 97%
    02:00 -3°C° 1 mm 1 mps 633 mmHg 97%
    03:00 -3°C° 1 mm 1 mps 633 mmHg 97%
    04:00 -3°C° 1 mm 1 mps 633 mmHg 96%
    05:00 -3°C° 1.1 mm 1 mps 633 mmHg 96%
    06:00 -3°C° 1.1 mm 1 mps 633 mmHg 96%
    07:00 -3°C° 1.1 mm 1 mps 634 mmHg 96%
    08:00 -3°C° 0.8 mm 1 mps 634 mmHg 95%
    09:00 -3°C° 0.8 mm 1 mps 635 mmHg 94%
    10:00 -2°C° 0.8 mm 1 mps 635 mmHg 94%
    11:00 -1°C° 0.4 mm 1 mps 636 mmHg 93%
    12:00 -1°C° 0.4 mm 1 mps 636 mmHg 92%
    13:00 0°C° 0.4 mm 1 mps 636 mmHg 91%
    14:00 0°C° 0.2 mm 1 mps 637 mmHg 91%
    15:00 0°C° 0.2 mm 1 mps 637 mmHg 92%
    16:00 +1°C° 0.2 mm 1 mps 637 mmHg 93%
    17:00 0°C° 0 mm 1 mps 637 mmHg 93%
    18:00 -1°C° 0 mm 1 mps 637 mmHg 93%
    19:00 -3°C° 0 mm 1 mps 638 mmHg 93%
    20:00 -3°C° 0 mm 1 mps 638 mmHg 91%
    21:00 -5°C° 0 mm 2 mps 638 mmHg 90%
    22:00 -5°C° 0 mm 2 mps 638 mmHg 88%
    23:00 -5°C° 0 mm 2 mps 638 mmHg 87%

    28 January, Sunday

    Time Temperature Precipitation Wind Pressure Humidity
    00:00 -5°C° 0 mm 2 mps 639 mmHg 87%
    01:00 -5°C° 0 mm 2 mps 639 mmHg 86%
    02:00 -5°C° 0 mm 2 mps 639 mmHg 85%
    03:00 -5°C° 0 mm 2 mps 639 mmHg 85%
    04:00 -5°C° 0 mm 2 mps 639 mmHg 85%
    05:00 -5°C° 0 mm 2 mps 639 mmHg 84%
    06:00 -3°C° 0 mm 1 mps 639 mmHg 84%
    07:00 -4°C° 0 mm 1 mps 640 mmHg 83%
    08:00 -2°C° 0 mm 1 mps 640 mmHg 83%
    09:00 0°C° 0 mm 1 mps 641 mmHg 83%
    10:00 +1°C° 0 mm 1 mps 642 mmHg 83%
    11:00 +2°C° 0 mm 1 mps 642 mmHg 87%
    12:00 +3°C° 0 mm 1 mps 642 mmHg 91%
    13:00 +4°C° 0 mm 1 mps 642 mmHg 95%
    14:00 +3°C° 0 mm 1 mps 642 mmHg 94%
    15:00 +3°C° 0 mm 1 mps 641 mmHg 93%
    16:00 +2°C° 0 mm 1 mps 641 mmHg 93%
    17:00 +1°C° 0 mm 1 mps 641 mmHg 87%
    18:00 0°C° 0 mm 1 mps 641 mmHg 82%
    19:00 -1°C° 0 mm 1 mps 641 mmHg 77%
    20:00 -1°C° 0 mm 1 mps 641 mmHg 74%
    21:00 -1°C° 0 mm 1 mps 642 mmHg 71%
    22:00 0°C° 0 mm 1 mps 642 mmHg 68%
    23:00 0°C° 0 mm 1 mps 642 mmHg 71%
    Show more